Probability
0 0 0 0 0 0 0 0 0 0 0 0 0 0 0 0 0 0 0 0 0 0 0 0 0 0 0 0 0 0 0 0 0 0 0 0 0 0
0 0 0 0 0 0 0 0 0 0 0 0 0 0 0 0 0 0 0 0 0 0 0 0 0 0 0 0 0 0 0 0 0 0 0 0 0 0
0 0 0 0 0 0 0 0 0 0 0 0 0 0 0 0 0 0 0 0 0 0 0 0 0 0 0 0 0 0 0 0 0 0 0 0 0 0
0 0 0 0 0 0 0 0 0 0 0 0 0 0 0 0 0 0 0 0 0 0 0 0 0 0 0 0 0 0 0 0 0 0 0 0 0 0
0 0 0 0 0 0 0 0 0 0 0 0 0 0 0 0 0 0 0 0 0 0 0 0 0 0 0 0 0 0 0 0 0 0 0 0 0 0
0 0 0 0 0 0 0 0 0 0 0 0 0 0 0 0 0 0 0 0 0 0 0 0 0 0 0 0 0 0 0 0 0 0 0 0 0 0
0 0 0 0 0 0 0 0 0 0 0 0 0 0 0 0 0 0 0 0 0 0 0 0 0 0 0 0 0 0 0 0 0 0 0 0 0 0
0 0 0 0 0 0 0 0 0 0 0 0 0 0 0 0 0 0 0 0 0 0 0 0 0 0 0 0 0 0 0 0 0 0 0 0 0 0
0 0 0 0 0 0 0 0 0 0 0 0 0 0 0 0 0 0 0 0 0 0 0 0 0 0 0 0 0 0 0 0 0 0 0 0 0 0
0 0 0 0 0 0 0 0 0 0 0 0 0 0 0 0 0 0 0 0 0 0 0 0 0 0 0 0 0 0 0 0 0 0 0 0 0 0
0 0 0 0 0 0 0 0 0 0 0 0 0 0 0 0 0 0 0 0 0 0 0 0 0 0 0 0 0 0 0 0 0 0 0 0 0 0
0 0 0 0 0 0 0 0 0 0 0 0 0 0 0 0 0 0 0 0 0 0 0 0 0 0 0 0 0 0 0 0 0 0 0 0 0 0
0 0 0 0 0 0 0 0 0 0 0 0 0 0 0 0 0 0 0 0 0 0 0 0 0 0 0 0 0 0 0 0 0 0 0 0 0 0
0 0 0 0 0 0 0 0 0 0 0 0 0 0 0 0 0 0 0 0 0 0 0 0 0 0 0 0 0 0 0 0 0 0 0 0 0 0
0 0 0 0 0 0 0 0 0 0 0 0 0 0 0 0 0 0 0 0 0 0 0 0 0 0 0 0 0 0 0 0 0 0 0 0 0 0
0 0 0 0 0 0 0 0 0 0 0 0 0 0 0 0 0 0 0 0 0 0 0 0 0 0 0 0 0 0 0 0 0 0 0 0 0 0
0 0 0 0 0 0 0 0 0 0 0 0 0 0 0 0 0 0 0 0 0 0 0 0 0 0 0 0 0 0 0 0 0 0 0 0 0 0
0 0 0 0 0 0 0 0 0 0 0 0 0 0 0 0 0 0 0 0 0 0 0 0 0 0 0 0 0 0 0 0 0 0 0 0 0 0
0 0 0 0 0 0 0 0 0 0 0 0 0 0 0 0 0 0 0 0 0 0 0 0 0 0 0 0 0 0 0 0 0 0 0 0 0 0
0 0 0 0 0 0 0 0 0 0 0 0 0 0 0 0 0 0 0 0 0 0 0 0 0 0 0 0 0 0 0 0 0 0 0 0 0 0
0 0 0 0 0 0 0 0 0 0 0 0 0 0 0 0 0 0 0 0 0 0 0 0 0 0 0 0 0 0 0 0 0 0 0 0 0 0
0 0 0 0 0 0 0 0 0 0 0 0 0 0 0 0 0 0 0 0 0 0 0 0 0 0 0 0 0 0 0 0 0 0 0 0 0 0
0 0 0 0 0 0 0 0 0 0 0 0 0 0 0 0 0 0 0 0 0 0 0 0 0 0 0 0 0 0 0 0 0 0 0 0 0 0
Wind_Speed
3 4 3 2 2 2 3 4 5 3 3 3 2 2 2 2 3 2 2 4 4 5 6 6 7 7 8 8 9 10 10 11 11 12 12 13 13 14
3 4 3 2 3 3 3 3 3 4 3 3 3 2 2 2 3 2 2 4 5 6 7 7 7 8 8 9 9 10 11 11 12 13 13 14 14 14
4 5 4 4 3 3 3 3 3 3 3 2 1 1 1 2 2 1 2 2 3 7 8 8 8 8 9 9 9 10 11 12 13 13 14 14 14 15
5 5 5 4 4 3 3 3 3 3 3 3 2 1 2 2 2 2 2 2 3 7 8 9 9 9 9 10 10 10 11 12 13 13 14 14 14 15
6 6 6 6 5 4 4 3 3 3 3 3 3 2 2 1 1 2 2 2 3 5 8 9 9 9 10 10 11 11 12 12 13 13 13 14 14 14
5 5 6 7 7 6 5 5 4 3 3 3 2 2 2 2 1 2 2 2 3 3 6 6 7 9 10 11 12 11 12 12 13 13 13 13 13 14
4 4 5 7 9 7 5 5 5 4 3 3 3 2 2 2 2 2 3 2 3 3 2 3 4 4 5 9 11 12 12 13 13 13 14 14 14 14
5 4 4 5 7 9 9 8 8 6 6 4 4 4 4 4 3 2 2 2 3 2 2 4 3 4 4 4 10 13 13 13 13 13 13 14 14 14
5 4 4 4 5 4 6 7 8 10 9 6 6 6 5 5 3 3 3 4 5 3 2 5 3 5 4 6 12 13 13 12 12 13 13 14 14 14
5 5 5 4 4 5 4 4 4 5 6 5 5 6 5 5 5 5 4 3 3 2 2 4 4 4 5 4 11 13 12 12 12 13 14 15 15 15
4 4 5 5 7 8 5 5 4 4 5 7 7 7 7 7 4 2 2 2 4 3 2 3 3 4 4 4 7 11 11 12 13 14 15 15 15 14
2 3 6 7 8 8 6 5 6 5 3 3 4 5 4 5 6 4 4 3 3 4 3 2 2 3 4 3 3 3 5 10 13 14 15 15 14 8
3 3 4 8 9 9 7 5 7 5 3 4 3 3 2 3 3 4 4 4 4 5 3 2 3 3 4 5 4 3 4 4 5 7 11 14 14 10
3 3 4 7 8 8 6 6 8 5 2 2 3 3 3 3 3 3 4 5 5 6 5 4 3 4 4 6 6 4 3 4 4 5 5 10 11 13
3 5 5 6 6 5 6 7 5 3 2 3 3 4 3 3 2 2 3 3 4 4 4 4 4 4 5 6 6 5 5 5 4 4 4 5 5 5
2 4 5 5 4 4 4 4 3 3 3 4 3 3 2 2 2 2 2 2 3 4 3 4 5 5 5 7 6 7 5 5 4 4 5 5 5 5
2 1 1 1 2 2 2 2 2 2 3 2 3 3 2 2 2 2 2 2 3 4 4 3 3 4 6 6 6 7 7 6 6 5 5 6 6 6
2 2 2 3 3 3 3 3 2 3 3 3 3 3 3 3 3 2 2 3 4 5 4 3 3 3 3 5 8 7 6 6 5 5 4 6 8 6
3 2 3 3 3 3 3 3 3 3 2 3 3 3 3 3 3 3 3 4 4 5 4 3 3 3 5 6 5 6 5 5 5 5 4 5 7 7
2 3 3 3 3 3 3 3 3 2 2 3 3 3 3 3 3 4 4 4 4 4 4 4 4 4 5 6 5 5 6 6 5 5 5 5 6 9
2 3 3 3 3 3 3 3 3 3 3 3 3 3 3 4 4 4 4 6 5 4 5 5 5 7 4 3 4 5 4 7 8 6 5 5 6 5
2 3 3 3 3 3 3 3 3 3 3 3 3 3 3 4 4 5 4 4 4 4 5 5 4 3 2 4 6 6 6 5 7 10 11 9 5 4
2 2 2 2 3 2 3 3 4 3 3 3 3 3 3 3 4 4 4 4 4 5 4 4 3 3 3 4 5 5 7 6 5 5 5 9 12 14
Wind_Direction
177 173 172 167 153 154 152 154 156 178 230 235 227 220 193 191 210 185 207 262 284 290 295 301 304 303 302 302 302 303 304 304 304 303 303 303 303 304
174 173 180 167 159 163 162 167 164 165 204 223 220 214 192 206 225 202 225 267 275 284 288 291 295 296 296 297 299 300 301 303 302 301 300 300 301 301
181 183 191 175 167 169 165 166 168 159 195 236 232 222 199 212 239 229 237 240 255 275 281 285 288 291 293 294 295 297 299 300 299 299 298 298 298 298
194 189 193 181 180 176 173 177 176 172 176 211 233 221 225 222 226 238 251 253 248 270 277 282 283 286 289 290 292 295 297 297 297 297 297 296 297 296
197 196 195 182 190 186 180 183 180 176 172 187 220 217 230 231 234 255 254 259 266 272 278 278 279 285 289 290 292 293 295 295 295 296 298 297 296 295
201 201 198 192 196 189 187 188 179 176 174 186 212 222 227 235 216 237 270 259 270 280 274 275 281 289 289 289 290 291 292 291 292 294 296 297 296 295
200 204 206 201 200 195 191 187 183 184 184 194 213 220 226 218 231 224 250 276 277 258 259 268 274 272 277 283 287 286 288 290 290 292 293 294 296 295
199 204 211 206 207 208 207 201 194 192 195 200 213 220 233 224 221 228 237 263 277 248 245 273 255 263 264 258 277 286 288 289 290 291 292 294 296 295
197 197 210 209 206 198 211 215 217 221 214 201 207 220 222 216 211 229 235 239 255 253 256 277 270 270 267 274 283 286 287 288 291 293 294 295 296 297
200 201 202 205 204 196 195 205 219 225 225 215 213 222 220 214 211 221 230 252 263 254 221 266 273 271 278 271 281 283 284 289 292 292 293 294 295 295
204 202 201 207 215 210 197 204 223 237 240 233 232 237 240 243 235 212 224 259 277 268 220 235 267 284 280 268 272 279 283 288 291 293 294 294 294 295
208 212 216 217 222 219 206 203 220 235 222 235 241 246 240 236 237 220 208 232 263 268 219 211 263 295 293 268 261 271 278 283 287 292 294 294 294 294
208 216 219 223 228 228 222 213 226 228 211 215 227 234 232 229 230 225 217 218 239 254 230 213 255 265 265 285 283 264 259 268 280 286 292 294 294 292
216 218 220 227 232 234 232 230 236 234 201 205 225 234 235 238 239 234 234 235 237 244 237 223 241 249 265 277 281 279 272 266 267 275 277 290 293 293
226 229 237 239 237 237 239 240 235 216 200 216 233 241 237 236 236 246 254 253 260 256 242 236 239 249 252 264 274 278 287 279 262 263 271 276 278 282
244 245 250 252 244 236 241 240 224 210 209 220 229 238 232 226 234 237 252 267 277 285 268 245 239 242 256 259 264 272 268 267 270 268 274 275 270 264
212 219 215 230 233 230 228 229 220 215 224 219 223 236 245 247 253 241 241 256 262 276 283 277 256 251 248 252 263 263 266 266 264 270 277 281 275 265
211 211 225 229 234 232 230 233 227 224 225 223 226 231 239 244 252 251 244 248 260 266 268 272 286 298 291 266 239 254 261 263 268 269 266 277 283 276
220 219 229 237 238 233 229 230 234 229 220 221 230 233 235 241 246 250 249 254 257 260 261 258 254 258 276 283 274 231 245 269 276 275 266 263 275 281
216 222 232 236 235 229 226 226 227 224 224 226 231 232 230 236 243 247 249 252 259 265 268 261 248 243 250 265 275 274 253 254 262 272 278 275 272 279
235 232 232 231 230 228 227 223 225 230 231 229 233 233 231 232 242 247 250 260 266 264 264 264 258 269 267 263 272 274 270 256 256 261 271 281 287 286
252 246 240 232 226 224 224 226 230 232 232 234 235 236 235 235 244 247 247 253 257 257 263 269 272 275 256 257 269 277 284 288 279 275 267 257 256 265
269 265 255 241 233 224 223 226 230 235 232 232 234 237 238 242 243 243 246 249 256 261 266 272 276 269 261 260 269 276 282 289 293 295 284 279 274 271